W3TMB Weather Reports


time (UTC)temp
C
wind
direction
speed
KPH
gust
KPH
rain 1hr
cm
rain 24hr
cm
rain mn
cm
humidity
%
barometer
mb
20260507115306 8 336 3.2 4.8 0.00 0.00 0.00 81 1010.8
20260507114759 7 275 3.2 4.8 0.00 0.00 0.00 81 1010.8
20260507114256 7 323 3.2 4.8 0.00 0.00 0.00 81 1010.9
20260507113754 7 335 1.6 4.8 0.00 0.00 0.00 82 1010.8
20260507113250 7 346 0.0 1.6 0.00 0.00 0.00 84 1010.9
20260507112748 7 295 3.2 4.8 0.00 0.00 0.00 84 1010.9
20260507112245 6 334 0.0 1.6 0.00 0.00 0.00 85 1010.8
20260507111743 6 335 0.0 1.6 0.00 0.00 0.00 86 1010.8
20260507111239 6 351 1.6 1.6 0.00 0.00 0.00 87 1010.8
20260507110735 6 356 1.6 3.2 0.00 0.00 0.00 88 1010.7
20260507110232 5 336 0.0 1.6 0.00 0.00 0.00 90 1010.7
20260507105728 5 310 0.0 0.0 0.00 0.00 0.00 91 1010.6
20260507105225 5 354 0.0 0.0 0.00 0.00 0.00 94 1010.5
20260507104722 4 349 0.0 0.0 0.00 0.00 0.00 97 1010.4
20260507104219 3 338 0.0 1.6 0.00 0.00 0.00 98 1010.4
20260507103714 3 352 0.0 0.0 0.00 0.00 0.00 99 1010.5
20260507103211 3 342 0.0 0.0 0.00 0.00 0.00 99 1010.5
20260507102707 3 338 0.0 0.0 0.00 0.00 0.00 99 1010.2
20260507102204 3 338 0.0 0.0 0.00 0.00 0.00 99 1010.3
20260507101700 3 335 0.0 0.0 0.00 0.00 0.00 99 1010.1
20260507101155 3 338 0.0 0.0 0.00 0.00 0.00 98 1010.2
20260507100653 3 338 0.0 0.0 0.00 0.00 0.00 98 1010.1
20260507100151 3 338 0.0 0.0 0.00 0.00 0.00 98 1010.1
20260507095649 3 337 0.0 0.0 0.00 0.00 0.00 98 1010.3
20260507095145 3 338 0.0 0.0 0.00 0.00 0.00 98 1010.0
20260507094642 3 338 0.0 0.0 0.00 0.00 0.00 97 1010.3
20260507094139 3 337 0.0 0.0 0.00 0.00 0.00 97 1010.0
20260507093636 3 352 0.0 1.6 0.00 0.00 0.00 97 1009.9
20260507093135 3 352 0.0 1.6 0.00 0.00 0.00 97 1010.2
20260507092631 3 336 0.0 1.6 0.00 0.00 0.00 97 1010.1
20260507092127 3 350 0.0 0.0 0.00 0.00 0.00 96 1010.1
20260507091624 3 356 0.0 1.6 0.00 0.00 0.00 96 1010.1
20260507091120 4 321 0.0 0.0 0.00 0.00 0.00 96 1010.0
20260507090616 4 321 0.0 0.0 0.00 0.00 0.00 95 1009.9
20260507090114 5 321 0.0 0.0 0.00 0.00 0.00 95 1009.8
20260507085610 4 321 0.0 0.0 0.00 0.00 0.00 94 1009.7
20260507085107 5 321 0.0 0.0 0.00 0.00 0.00 93 1009.9
20260507084604 5 321 0.0 0.0 0.00 0.00 0.00 92 1009.8
20260507084101 5 321 0.0 0.0 0.00 0.00 0.00 91 1010.0
20260507083557 5 321 0.0 0.0 0.00 0.00 0.00 90 1009.9
20260507083054 5 321 0.0 0.0 0.00 0.00 0.00 89 1009.9
20260507082550 6 321 0.0 0.0 0.00 0.00 0.00 88 1009.9
20260507082047 6 321 0.0 1.6 0.00 0.00 0.00 87 1009.7
20260507081543 6 321 1.6 1.6 0.00 0.00 0.00 87 1009.8
20260507081040 6 321 0.0 1.6 0.00 0.00 0.00 87 1010.0
20260507080536 6 321 0.0 0.0 0.00 0.00 0.00 87 1009.7
20260507080033 6 321 0.0 0.0 0.00 0.00 0.00 87 1009.9
20260507075528 7 321 0.0 0.0 0.00 0.00 0.00 86 1009.8
20260507075025 7 321 0.0 0.0 0.00 0.00 0.00 84 1009.8
20260507074521 7 321 0.0 0.0 0.00 0.00 0.00 83 1009.8
20260507074020 7 321 0.0 0.0 0.00 0.00 0.00 82 1009.8
20260507073516 7 320 0.0 1.6 0.00 0.00 0.00 82 1009.8
20260507073012 7 321 1.6 1.6 0.00 0.00 0.00 83 1009.6
20260507072510 7 324 0.0 0.0 0.00 0.00 0.00 85 1009.8
20260507072007 7 324 0.0 0.0 0.00 0.00 0.00 85 1009.6
20260507071504 7 324 0.0 0.0 0.00 0.00 0.00 85 1009.8
20260507071001 7 324 0.0 1.6 0.00 0.00 0.00 85 1009.9
20260507070458 7 324 0.0 1.6 0.00 0.00 0.00 84 1009.9
20260507065954 7 324 0.0 0.0 0.00 0.00 0.00 85 1009.6
20260507065451 7 324 0.0 1.6 0.00 0.00 0.00 85 1009.6
20260507064948 7 323 0.0 1.6 0.00 0.00 0.00 86 1009.7
20260507064447 7 325 0.0 0.0 0.00 0.00 0.00 87 1009.8
20260507063944 7 325 0.0 0.0 0.00 0.00 0.00 87 1009.7
20260507063441 7 325 0.0 0.0 0.00 0.00 0.00 87 1009.8
20260507062938 7 325 0.0 1.6 0.00 0.00 0.00 87 1009.8
20260507062435 7 325 1.6 1.6 0.00 0.00 0.00 85 1009.7
20260507061932 7 324 0.0 1.6 0.00 0.00 0.00 83 1009.6
20260507061430 7 324 0.0 0.0 0.00 0.00 0.00 82 1009.7
20260507060929 8 324 0.0 1.6 0.00 0.00 0.00 82 1009.9
20260507060425 8 326 0.0 1.6 0.00 0.00 0.00 83 1009.9
20260507055922 8 321 0.0 0.0 0.00 0.00 0.00 81 1009.9
20260507055417 8 326 0.0 0.0 0.00 0.00 0.00 83 1009.8
20260507054914 8 326 0.0 0.0 0.00 0.00 0.00 81 1010.0
20260507054410 8 326 0.0 1.6 0.00 0.00 0.00 79 1009.9
20260507053908 8 326 0.0 0.0 0.00 0.00 0.00 78 1009.8
20260507053405 9 326 0.0 1.6 0.00 0.00 0.00 76 1009.9
20260507052904 9 336 0.0 1.6 0.00 0.00 0.00 75 1009.6
20260507052400 10 329 0.0 1.6 0.00 0.00 0.00 75 1009.6
20260507051858 10 313 0.0 1.6 0.00 0.00 0.00 73 1009.8
20260507051355 10 267 1.6 3.2 0.00 0.00 0.00 73 1010.0
20260507050852 10 317 1.6 3.2 0.00 0.00 0.00 73 1009.9
20260507050348 10 292 1.6 3.2 0.00 0.00 0.00 73 1009.9
20260507045845 10 344 3.2 3.2 0.00 0.00 0.00 74 1009.7
20260507045342 10 324 1.6 4.8 0.00 0.00 0.00 74 1009.8
20260507044839 10 305 3.2 4.8 0.00 0.00 0.00 75 1009.4
20260507044335 10 345 1.6 4.8 0.00 0.00 0.00 76 1009.5
20260507043831 10 290 0.0 1.6 0.00 0.00 0.00 78 1009.6
20260507043328 10 333 0.0 1.6 0.00 0.00 0.00 78 1009.5
20260507042824 10 323 1.6 4.8 0.00 0.00 0.00 78 1009.5
20260507042320 10 327 0.0 1.6 0.00 0.00 0.00 81 1009.5
20260507041817 10 324 1.6 3.2 0.00 0.00 0.00 83 1009.6
20260507041314 10 241 3.2 4.8 0.00 0.00 0.00 85 1009.5
20260507040811 9 332 0.0 1.6 0.00 0.00 0.00 90 1009.6
20260507040307 9 330 0.0 1.6 0.00 0.00 0.00 93 1009.6
20260507035803 10 336 0.0 0.0 0.00 0.71 0.71 94 1009.5
20260507035258 10 336 0.0 0.0 0.00 0.71 0.71 94 1009.4
20260507034757 10 336 0.0 0.0 0.00 0.71 0.71 94 1009.1
20260507034253 9 336 0.0 0.0 0.00 0.71 0.71 94 1009.4
20260507033752 9 336 0.0 0.0 0.00 0.71 0.71 94 1009.2
20260507033249 9 336 0.0 0.0 0.00 0.71 0.71 94 1009.5
20260507032745 9 336 0.0 0.0 0.00 0.71 0.71 94 1009.6
20260507032242 9 335 0.0 0.0 0.00 0.71 0.71 94 1009.4
20260507031738 9 336 0.0 0.0 0.00 0.71 0.71 94 1009.4
20260507031235 9 336 0.0 0.0 0.00 0.71 0.71 95 1009.7
20260507030732 9 336 0.0 0.0 0.00 0.71 0.71 95 1009.4
20260507030229 9 335 0.0 1.6 0.00 0.71 0.71 95 1009.3
20260507025727 8 344 0.0 0.0 0.00 0.71 0.71 95 1009.2
20260507025223 8 353 0.0 0.0 0.00 0.71 0.71 94 1009.0
20260507024722 8 353 0.0 0.0 0.00 0.71 0.71 94 1009.1
20260507024219 9 352 0.0 0.0 0.00 0.71 0.71 94 1009.1
20260507023714 9 351 0.0 0.0 0.00 0.71 0.71 94 1009.4
20260507023211 10 351 0.0 0.0 0.00 0.71 0.71 93 1009.2
20260507022709 10 350 0.0 0.0 0.00 0.71 0.71 92 1009.2
20260507022204 10 6 0.0 0.0 0.00 0.71 0.71 92 1009.0
20260507021701 10 357 0.0 0.0 0.00 0.71 0.71 92 1009.3
20260507021156 10 355 0.0 0.0 0.00 0.71 0.71 92 1009.3
20260507020655 10 355 0.0 0.0 0.00 0.71 0.71 92 1009.6
20260507020150 10 5 0.0 0.0 0.00 0.71 0.71 92 1009.3
20260507015649 10 345 0.0 0.0 0.00 0.71 0.71 92 1009.6
20260507015146 10 348 0.0 0.0 0.00 0.71 0.71 92 1009.4
20260507014642 10 344 0.0 1.6 0.00 0.71 0.71 92 1009.9
20260507014138 11 350 1.6 3.2 0.00 0.71 0.71 91 1009.4
20260507013635 11 342 0.0 0.0 0.00 0.71 0.71 91 1009.2
20260507013132 11 342 0.0 0.0 0.00 0.71 0.71 91 1009.5
20260507012630 11 348 0.0 0.0 0.00 0.71 0.71 89 1009.3
20260507012125 11 1 1.6 1.6 0.00 0.71 0.71 88 1009.3
20260507011624 11 346 0.0 1.6 0.00 0.71 0.71 87 1009.5
20260507011119 11 343 0.0 0.0 0.00 0.71 0.71 90 1009.4
20260507010614 11 330 0.0 1.6 0.00 0.71 0.71 89 1009.7
20260507010110 11 336 0.0 0.0 0.00 0.71 0.71 89 1009.5
20260507005608 11 336 0.0 0.0 0.00 0.71 0.71 89 1009.3
20260507005104 11 335 0.0 1.6 0.00 0.71 0.71 91 1009.2
20260507004601 11 341 0.0 0.0 0.00 0.71 0.71 91 1009.1
20260507004058 12 294 0.0 1.6 0.00 0.71 0.71 92 1009.2
20260507003554 12 282 1.6 3.2 0.00 0.71 0.71 91 1009.0
20260507003049 12 334 0.0 0.0 0.00 0.71 0.71 91 1009.0
20260507002546 12 343 0.0 0.0 0.00 0.71 0.71 91 1008.8
20260507002042 12 343 0.0 0.0 0.00 0.71 0.71 91 1008.9
20260507001539 12 344 0.0 0.0 0.00 0.71 0.71 91 1008.6
20260507001037 12 344 0.0 0.0 0.00 0.71 0.71 90 1008.5
20260507000533 12 345 0.0 0.0 0.00 0.71 0.71 90 1008.1
20260507000028 12 345 0.0 0.0 0.00 0.71 0.71 90 1008.3
20260506235526 12 344 0.0 0.0 0.00 0.71 0.71 90 1008.4
20260506235021 12 346 0.0 0.0 0.00 0.71 0.71 90 1008.0
20260506234519 12 346 0.0 0.0 0.00 0.71 0.71 90 1008.0
20260506234016 12 346 0.0 0.0 0.00 0.71 0.71 90 1007.9
20260506233513 12 0 0.0 1.6 0.00 0.71 0.71 90 1008.0
20260506233010 12 358 0.0 1.6 0.00 0.71 0.71 90 1008.0
20260506232506 12 46 1.6 3.2 0.00 0.71 0.71 89 1007.7
20260506232001 12 12 1.6 1.6 0.00 0.71 0.71 89 1007.5
20260506231459 12 353 0.0 1.6 0.00 0.71 0.71 89 1007.6
20260506230956 12 354 0.0 8.0 0.00 0.71 0.71 89 1007.8
20260506230452 12 9 0.0 3.2 0.00 0.71 0.71 89 1007.7
20260506225949 12 31 4.8 4.8 0.00 0.71 0.71 89 1007.7
20260506225447 12 52 3.2 4.8 0.00 0.71 0.71 89 1007.5
20260506224943 12 57 3.2 3.2 0.00 0.71 0.71 89 1007.6
20260506224441 12 16 1.6 3.2 0.00 0.71 0.71 89 1007.4
20260506223937 12 30 1.6 8.0 0.00 0.71 0.71 88 1007.3
20260506223432 12 40 1.6 4.8 0.00 0.71 0.71 88 1007.2
20260506222930 12 75 4.8 4.8 0.00 0.71 0.71 88 1007.2
20260506222426 12 356 0.0 3.2 0.00 0.71 0.71 88 1007.2
20260506221923 12 60 1.6 3.2 0.00 0.71 0.71 88 1007.4
20260506221420 12 46 1.6 4.8 0.00 0.71 0.71 88 1007.4
20260506220918 12 68 4.8 4.8 0.00 0.71 0.71 88 1007.4
20260506220413 12 108 3.2 4.8 0.00 0.71 0.71 88 1007.3
20260506215910 12 0 1.6 8.0 0.00 0.71 0.71 87 1007.3
20260506215407 12 93 1.6 3.2 0.00 0.71 0.71 87 1007.0
20260506214902 12 2 0.0 4.8 0.00 0.71 0.71 87 1007.3
20260506214359 13 11 0.0 3.2 0.00 0.71 0.71 87 1006.7
20260506213857 13 101 1.6 3.2 0.00 0.71 0.71 87 1006.5
20260506213354 13 357 0.0 1.6 0.00 0.71 0.71 87 1006.2
20260506212852 13 356 4.8 4.8 0.00 0.71 0.71 87 1006.3
20260506212347 13 279 1.6 1.6 0.00 0.71 0.71 87 1006.1
20260506211842 13 49 4.8 4.8 0.00 0.71 0.71 87 1006.0
20260506211339 13 354 1.6 4.8 0.00 0.71 0.71 87 1005.8
20260506210836 13 48 6.4 8.0 0.00 0.71 0.71 87 1005.6
20260506210333 13 3 8.0 9.7 0.00 0.71 0.71 87 1005.8
20260506205830 13 45 3.2 9.7 0.00 0.71 0.71 87 1005.4
20260506205326 14 0 9.7 12.9 0.00 0.71 0.71 87 1005.4
20260506204823 14 32 12.9 20.9 0.00 0.71 0.71 87 1005.3
20260506204320 14 42 8.0 16.1 0.00 0.71 0.71 87 1005.0
20260506203818 15 297 8.0 20.9 0.00 0.71 0.71 87 1005.1
20260506203315 15 32 6.4 11.3 0.00 0.71 0.71 87 1004.9
20260506202812 15 10 8.0 14.5 0.00 0.71 0.71 87 1005.0
20260506202309 16 359 4.8 14.5 0.00 0.71 0.71 86 1004.7
20260506201805 17 346 0.0 1.6 0.00 0.71 0.71 88 1004.4
20260506201302 17 308 1.6 3.2 0.00 0.71 0.71 88 1004.4
20260506200759 17 337 1.6 4.8 0.00 0.71 0.71 89 1004.3
20260506200255 16 325 1.6 8.0 0.00 0.71 0.71 89 1004.3
20260506195752 16 300 1.6 8.0 0.00 0.71 0.71 90 1004.2
20260506195248 16 314 1.6 3.2 0.00 0.71 0.71 92 1004.1
20260506194746 16 355 1.6 3.2 0.00 0.71 0.71 92 1003.9
20260506194242 16 322 1.6 3.2 0.00 0.71 0.71 92 1004.1
20260506193740 16 344 1.6 3.2 0.00 0.71 0.71 92 1004.1
20260506193236 16 337 0.0 8.0 0.00 0.71 0.71 91 1004.0
20260506192733 16 290 1.6 3.2 0.00 0.71 0.71 91 1004.2
20260506192230 16 287 3.2 4.8 0.00 0.71 0.71 91 1004.2
20260506191727 16 258 3.2 3.2 0.00 0.71 0.71 91 1004.2
20260506191223 17 317 3.2 4.8 0.00 0.71 0.71 92 1004.2
20260506190720 16 330 3.2 8.0 0.00 0.71 0.71 93 1004.3
20260506190217 16 350 1.6 3.2 0.00 0.71 0.71 93 1004.1
20260506185715 16 300 1.6 3.2 0.00 0.71 0.71 93 1004.1
20260506185210 16 330 0.0 3.2 0.00 0.71 0.71 94 1004.0
20260506184708 16 245 4.8 8.0 0.00 0.71 0.71 94 1004.0
20260506184205 16 276 3.2 4.8 0.00 0.71 0.71 95 1004.1
20260506183701 16 344 0.0 3.2 0.00 0.71 0.71 95 1004.3
20260506183157 16 354 1.6 3.2 0.00 0.71 0.71 96 1004.1
20260506182655 16 327 3.2 3.2 0.00 0.71 0.71 95 1004.0
20260506182151 16 305 1.6 3.2 0.00 0.71 0.71 95 1004.0
20260506181644 16 289 1.6 3.2 0.00 0.71 0.71 95 1004.1
20260506181141 16 319 1.6 3.2 0.00 0.71 0.71 95 1004.2
20260506180638 16 337 0.0 1.6 0.00 0.71 0.71 96 1004.3
20260506180134 16 335 0.0 1.6 0.00 0.71 0.71 97 1004.1
20260506175630 16 329 0.0 1.6 0.00 0.71 0.71 97 1004.3
20260506175126 16 329 1.6 3.2 0.00 0.71 0.71 99 1004.2
20260506174626 15 343 0.0 3.2 0.00 0.71 0.71 99 1004.1
20260506174122 15 302 3.2 3.2 0.00 0.71 0.71 99 1004.0
20260506173620 15 333 1.6 1.6 0.00 0.71 0.71 99 1003.9
20260506173116 15 331 0.0 3.2 0.00 0.71 0.71 99 1004.3
20260506172614 15 325 1.6 3.2 0.00 0.71 0.71 99 1004.2
20260506172109 15 283 1.6 1.6 0.00 0.71 0.71 99 1003.8
20260506171608 15 326 0.0 1.6 0.00 0.71 0.71 99 1004.1
20260506171105 15 336 0.0 1.6 0.00 0.71 0.71 99 1004.1
20260506170602 16 352 0.0 1.6 0.00 0.71 0.71 99 1004.0
20260506170059 16 16 1.6 1.6 0.00 0.71 0.71 99 1004.1
20260506165558 16 345 0.0 1.6 0.00 0.71 0.71 99 1004.2
20260506165054 15 349 0.0 1.6 0.00 0.71 0.71 99 1004.1
20260506164551 15 345 0.0 0.0 0.00 0.71 0.71 99 1004.2
20260506164048 15 355 0.0 0.0 0.00 0.71 0.71 99 1004.1
20260506163543 15 325 0.0 1.6 0.00 0.71 0.71 99 1004.3
20260506163040 15 357 0.0 1.6 0.00 0.71 0.71 99 1004.3
20260506162536 15 7 0.0 0.0 0.00 0.71 0.71 99 1004.4
20260506162033 15 342 0.0 1.6 0.00 0.71 0.71 99 1004.4
20260506161531 14 30 0.0 1.6 0.00 0.71 0.71 99 1004.2
20260506161028 14 0 0.0 3.2 0.00 0.71 0.71 99 1004.1
20260506160526 14 8 0.0 3.2 0.00 0.71 0.71 99 1004.5
20260506160022 15 356 0.0 0.0 0.00 0.71 0.71 99 1004.4
20260506155521 15 351 0.0 0.0 0.00 0.71 0.71 99 1004.1
20260506153652 15 348 0.0 1.6 0.00 0.71 0.71 99 1004.3
20260506153149 14 354 0.0 0.0 0.00 0.71 0.71 99 1004.2
20260506152646 15 355 0.0 0.0 0.00 0.71 0.71 99 1004.2
20260506152144 14 353 0.0 0.0 0.00 0.71 0.71 99 1004.3
20260506151642 14 349 0.0 0.0 0.00 0.71 0.71 99 1004.3
20260506151138 14 356 0.0 1.6 0.00 0.71 0.71 99 1004.1
20260506150635 14 347 0.0 0.0 0.00 0.71 0.71 99 1004.1
20260506150132 14 351 0.0 0.0 0.00 0.71 0.71 99 1004.1
20260506145629 14 349 0.0 0.0 0.00 0.71 0.71 99 1004.3
20260506145126 14 355 0.0 0.0 0.13 0.71 0.71 99 1004.3
20260506144624 14 352 0.0 0.0 0.13 0.71 0.71 99 1004.3
20260506144120 14 356 0.0 0.0 0.00 0.69 0.69 99 1004.1
20260506143618 14 354 0.0 0.0 0.18 0.69 0.69 99 1004.1
20260506143116 13 9 0.0 1.6 0.00 0.66 0.66 99 1004.1
20260506142614 13 0 0.0 0.0 0.13 0.66 0.66 99 1004.4
20260506142112 14 353 0.0 0.0 0.13 0.66 0.66 99 1004.1
20260506141609 14 356 0.0 0.0 0.00 0.64 0.64 99 1004.0
20260506141107 13 339 0.0 1.6 0.00 0.64 0.64 99 1003.9
20260506140604 13 4 0.0 0.0 0.00 0.64 0.64 99 1004.1
20260506135558 13 2 0.0 0.0 0.18 0.64 0.64 99 1004.0
20260506135054 13 344 0.0 0.0 0.13 0.61 0.61 99 1004.2
20260506134551 13 352 0.0 0.0 0.30 0.61 0.61 99 1004.3
20260506134047 13 345 0.0 3.2 0.30 0.56 0.56 99 1004.4
20260506133544 14 329 0.0 1.6 0.61 0.53 0.53 99 1004.6
20260506133041 14 337 0.0 0.0 0.61 0.48 0.48 99 1004.3
20260506132539 14 0 0.0 0.0 0.30 0.43 0.43 99 1004.6
20260506132036 14 4 0.0 1.6 0.00 0.38 0.38 99 1004.3
20260506131533 14 350 0.0 0.0 0.00 0.38 0.38 99 1004.4
20260506131029 14 355 0.0 0.0 0.00 0.38 0.38 99 1004.3
20260506130526 14 349 0.0 0.0 0.00 0.38 0.38 99 1004.1
20260506130024 14 357 0.0 1.6 0.00 0.38 0.38 99 1004.1
20260506125522 14 353 0.0 0.0 0.00 0.38 0.38 99 1004.4
20260506125019 13 356 0.0 0.0 0.13 0.38 0.38 99 1004.3
20260506124517 13 357 0.0 1.6 0.13 0.38 0.38 99 1004.4
20260506124015 13 356 0.0 1.6 0.18 0.36 0.36 99 1004.4
20260506123512 13 355 3.2 3.2 0.30 0.36 0.36 99 1004.6
20260506123010 13 339 0.0 0.0 0.30 0.33 0.33 99 1004.7
20260506122506 13 21 0.0 1.6 0.30 0.30 0.30 99 1004.7
20260506122005 13 2 0.0 1.6 0.30 0.28 0.28 99 1005.1
20260506121502 13 21 1.6 3.2 0.36 0.25 0.25 99 1005.1
20260506120958 13 6 0.0 0.0 0.30 0.23 0.23 99 1005.1
20260506120456 13 349 0.0 0.0 0.30 0.20 0.20 99 1005.2
20260506115953 13 351 0.0 0.0 0.30 0.18 0.18 99 1004.8